Location: Newark
(44.3248°N, 23.7839°E)
Time: 23:46:19
(UTC+00:00)

PCSat - Pass Details

Date: 20 April 2024
Orbit: 783 x 792 km, 67.1° (Epoch: 21 May)

Event Time Altitude Azimuth Distance (km) Brightness Sun altitude
Rises 00:18:33 0° 336° (NNW) 3,299 13.2 -28.3°
Reaches altitude 10° 00:23:24 10° 15° (NNE) 2,367 12.9 -27.8°
Maximum altitude 00:24:34 11° 27° (NNE) 2,322 12.9 -27.7°
Drops below altitude 10° 00:25:44 10° 40° (NE) 2,366 13.0 -27.6°
Sets 00:30:34 0° 78° (ENE) 3,292 13.4 -27.1°
